Ncc Rabigh — HZQA — position and weather

sailwx.info

Track history (hours):
 
Tides and Currents Weather Stations Pressure Air Temp Water Temp Dewpoint Dewpoint Depression Visibility Wind Speed Wind Dir Waves Ship Positions

Ncc Rabigh

Last reported at 2014-Oct-31 04:32 UTC. Time now 2014-Oct-31 06:15 UTC.
Position N 52°33' E 003°36'.

Length 183 m; draft 8 m.

Type: Tanker. MMSI: 403575000.

Date/timePositionNaut miles runAvg speedWind from/ knotsBaromVisibWave heightAir tempDewpointWater temp
2014-Oct-31 04:32N 52°33' E 003°36'0 0.1
2014-Oct-31 03:32N 52°32' E 003°36'0 0.1
2014-Oct-31 02:32N 52°32' E 003°36'0 0.0
2014-Oct-31 01:32N 52°32' E 003°35'0 0.1
2014-Oct-31 00:32N 52°32' E 003°36'0 0.1
2014-Oct-30 23:32N 52°33' E 003°36'0 0.0
2014-Oct-30 22:32N 52°33' E 003°36'0 0.0
2014-Oct-30 21:32N 52°33' E 003°36'0 0.0
2014-Oct-30 20:29N 52°33' E 003°36'0 0.0
2014-Oct-30 19:29N 52°33' E 003°36'0 0.0
2014-Oct-30 18:26N 52°33' E 003°36'0 0.0
2014-Oct-30 17:17N 52°33' E 003°36'0 0.0
2014-Oct-30 16:29N 52°33' E 003°36'0 0.0
2014-Oct-30 15:29N 52°33' E 003°36'0 0.1
2014-Oct-30 14:32N 52°33' E 003°35'0 0.0
2014-Oct-30 13:26N 52°32' E 003°35'0 0.0
2014-Oct-30 12:32N 52°33' E 003°35'0 0.0
2014-Oct-30 11:32N 52°33' E 003°35'0 0.0
2014-Oct-30 10:32N 52°33' E 003°35'0 0.0
2014-Oct-30 09:17N 52°33' E 003°35'0 0.0
2014-Oct-30 08:23N 52°33' E 003°35'0 0.0
2014-Oct-30 06:29N 52°33' E 003°36'0 0.0
2014-Oct-30 05:29N 52°33' E 003°35'0 0.1
2014-Oct-30 04:32N 52°33' E 003°35'0 0.1
2014-Oct-30 03:32N 52°32' E 003°35'0 0.0
2014-Oct-30 01:29N 52°32' E 003°35'0 0.0
2014-Oct-30 00:14N 52°32' E 003°35'0 0.0
2014-Oct-29 23:14N 52°32' E 003°35'0 0.0
2014-Oct-29 22:29N 52°32' E 003°35'0 0.0
2014-Oct-29 21:26N 52°32' E 003°35'0 0.0
2014-Oct-29 06:29N 52°33' E 003°36'0 0.0
2014-Oct-29 01:29N 52°33' E 003°36'0 0.0
2014-Oct-28 23:32N 52°33' E 003°36'0 0.0
2014-Oct-28 22:29N 52°33' E 003°36'0 0.0
2014-Oct-28 21:05N 52°33' E 003°36'0 0.0
2014-Oct-28 20:26N 52°33' E 003°36'0 0.0
2014-Oct-28 19:20N 52°33' E 003°36'0 0.0
2014-Oct-28 18:32N 52°33' E 003°36'0 0.0
2014-Oct-28 17:32N 52°33' E 003°36'0 0.0
2014-Oct-28 16:32N 52°33' E 003°36'0 0.0
2014-Oct-28 15:32N 52°33' E 003°36'0 0.0
2014-Oct-28 14:32N 52°33' E 003°36'0 0.0
2014-Oct-28 13:32N 52°33' E 003°36'0 0.1
2014-Oct-28 12:32N 52°33' E 003°36'0 0.0
2014-Oct-28 11:29N 52°33' E 003°35'0 0.0
2014-Oct-28 10:32N 52°33' E 003°35'8 7.9
2014-Oct-28 09:34N 52°31' E 003°23'1413.9
2014-Oct-28 08:33N 52°34' E 003°01'1413.9
2014-Oct-28 07:33N 52°37' E 002°38'1313.0
2014-Oct-28 06:33N 52°38' E 002°17'1212.6
2014-Oct-28 05:33N 52°26' E 002°18'10 9.9
2014-Oct-28 04:33N 52°25' E 002°34'8 8.3
2014-Oct-28 03:33N 52°34' E 002°34'8 7.8
2014-Oct-28 02:32N 52°41' E 002°28'9 9.0
2014-Oct-28 01:33N 52°36' E 002°16'1010.3
2014-Oct-28 00:33N 52°26' E 002°16'9 9.4
2014-Oct-27 23:33N 52°25' E 002°31'1111.1
2014-Oct-27 22:33N 52°36' E 002°33'9 8.8
2014-Oct-27 21:31N 52°40' E 002°20'9 9.6
2014-Oct-27 20:33N 52°31' E 002°17'8 7.7
2014-Oct-27 19:33N 52°26' E 002°26'1111.4
2014-Oct-27 18:33N 52°23' E 002°44'1413.6
2014-Oct-27 17:33N 52°18' E 003°05'1313.5
2014-Oct-27 16:33N 52°12' E 003°24'1313.1
2014-Oct-27 15:33N 52°06' E 003°43'1110.6
2014-Oct-27 14:33N 52°02' E 003°59'7 7.0
2014-Oct-27 13:34N 51°58' E 004°09'8 7.7
2014-Oct-27 12:33N 51°53' E 004°18'0 0.0
2014-Oct-27 11:33N 51°53' E 004°18'0 0.0
2014-Oct-27 10:30N 51°53' E 004°18'0 0.0
2014-Oct-27 09:33N 51°53' E 004°18'0 0.0
2014-Oct-27 08:30N 51°53' E 004°18'0 0.0
2014-Oct-27 07:30N 51°53' E 004°18'0 0.0
2014-Oct-27 06:30N 51°53' E 004°18'0 0.0
2014-Oct-27 05:33N 51°53' E 004°18'0 0.0
2014-Oct-27 04:33N 51°53' E 004°18'0 0.0
2014-Oct-27 03:30N 51°53' E 004°18'0 0.0
2014-Oct-27 02:33N 51°53' E 004°18'0 0.0
2014-Oct-27 01:30N 51°53' E 004°18'0 0.0
2014-Oct-27 00:33N 51°53' E 004°18'0 0.0
2014-Oct-26 23:33N 51°53' E 004°18'0 0.0
2014-Oct-26 22:33N 51°53' E 004°18'0 0.0
2014-Oct-26 21:30N 51°53' E 004°18'0 0.0
2014-Oct-26 20:33N 51°53' E 004°18'0 0.0
2014-Oct-26 19:30N 51°53' E 004°18'0 0.0
2014-Oct-26 18:33N 51°53' E 004°18'0 0.0
2014-Oct-26 17:27N 51°53' E 004°18'0 0.0
2014-Oct-26 16:33N 51°53' E 004°18'3 3.0
2014-Oct-26 15:33N 51°55' E 004°15'9 9.4
2014-Oct-26 14:34N 51°60' E 004°02'1110.8
2014-Oct-26 13:33N 51°59' E 003°44'8 7.8
2014-Oct-26 12:33N 51°56' E 003°32'2911.6
2014-Oct-26 10:03N 51°48' E 002°47'1111.2
2014-Oct-26 09:04N 51°42' E 002°33'611.4
2014-Oct-26 08:33N 51°38' E 002°26'1211.9
2014-Oct-26 07:34N 51°29' E 002°14'9 8.7
2014-Oct-26 06:34N 51°21' E 002°20'1513.0
2014-Oct-26 05:26N 51°23' E 002°43'1112.6
2014-Oct-26 04:32N 51°24' E 003°01'1313.3
2014-Oct-26 03:34N 51°25' E 003°22'1110.9
2014-Oct-26 02:34N 51°26' E 003°39'1010.2
2014-Oct-26 01:33N 51°21' E 003°53'6 6.1
2014-Oct-26 00:34N 51°24' E 004°02'7 7.5
2014-Oct-25 23:33N 51°22' E 004°14'6 6.1
2014-Oct-25 22:34N 51°16' E 004°17'0 0.4
2014-Oct-25 21:34N 51°16' E 004°17'2 2.1
2014-Oct-25 20:32N 51°17' E 004°14'0 0.0
2014-Oct-25 19:32N 51°17' E 004°14'0 0.0
2014-Oct-25 18:32N 51°17' E 004°14'0 0.0
2014-Oct-25 17:32N 51°17' E 004°14'0 0.0
2014-Oct-25 16:32N 51°17' E 004°14'0 0.0
2014-Oct-25 15:29N 51°17' E 004°14'0 0.0
2014-Oct-25 14:32N 51°17' E 004°14'0 0.0
2014-Oct-25 13:32N 51°17' E 004°14'0 0.0
2014-Oct-25 12:32N 51°17' E 004°14'0 0.0
2014-Oct-25 11:32N 51°17' E 004°14'0 0.0
2014-Oct-25 10:23N 51°17' E 004°14'0 0.0
2014-Oct-25 09:17N 51°17' E 004°14'0 0.0
2014-Oct-25 06:17N 51°17' E 004°14'0 0.0
2014-Oct-24 17:23N 51°17' E 004°14'0 0.0
2014-Oct-24 11:29N 51°17' E 004°14'0 0.0
2014-Oct-24 09:29N 51°17' E 004°14'0 0.0
2014-Oct-24 07:17N 51°17' E 004°14'0 0.0
2014-Oct-24 06:26N 51°17' E 004°14'0 0.0
2014-Oct-24 03:17N 51°17' E 004°14'0 0.0
2014-Oct-24 02:23N 51°17' E 004°14'0 0.0
2014-Oct-24 01:29N 51°17' E 004°14'0 0.0
2014-Oct-24 00:17N 51°17' E 004°14'0 0.7
2014-Oct-23 23:33N 51°17' E 004°13'1 0.7
2014-Oct-23 22:33N 51°16' E 004°13'0 0.0
2014-Oct-23 21:33N 51°16' E 004°13'0 0.0
2014-Oct-23 20:33N 51°16' E 004°13'0 0.0
2014-Oct-23 19:24N 51°16' E 004°13'0 0.0
2014-Oct-23 18:33N 51°16' E 004°13'0 0.0
2014-Oct-23 17:30N 51°16' E 004°13'0 0.0
2014-Oct-23 16:33N 51°16' E 004°13'0 0.0
2014-Oct-23 15:24N 51°16' E 004°13'0 0.0
2014-Oct-23 14:33N 51°16' E 004°13'0 0.0
2014-Oct-23 13:24N 51°16' E 004°13'0 0.0
2014-Oct-23 12:33N 51°16' E 004°13'0 0.0
2014-Oct-23 11:33N 51°16' E 004°13'0 0.0
2014-Oct-23 10:33N 51°16' E 004°13'0 0.0
2014-Oct-23 09:30N 51°16' E 004°13'0 0.0
2014-Oct-23 08:30N 51°16' E 004°13'0 0.0
2014-Oct-23 07:27N 51°16' E 004°13'0 0.0
2014-Oct-23 06:24N 51°16' E 004°13'0 0.0
2014-Oct-23 05:24N 51°16' E 004°13'0 0.0
2014-Oct-23 04:30N 51°16' E 004°13'0 0.0
2014-Oct-23 03:30N 51°16' E 004°13'0 0.0
2014-Oct-23 02:27N 51°16' E 004°13'0 0.0
2014-Oct-23 01:33N 51°16' E 004°13'0 0.0
2014-Oct-23 00:33N 51°16' E 004°13'0 0.0
2014-Oct-22 23:33N 51°16' E 004°13'0 0.0
2014-Oct-22 22:33N 51°16' E 004°13'0 0.0
2014-Oct-22 21:33N 51°16' E 004°13'0 0.0
2014-Oct-22 20:27N 51°16' E 004°13'0 0.0
2014-Oct-22 19:24N 51°16' E 004°13'0 0.0
2014-Oct-22 18:33N 51°16' E 004°13'0 0.0
2014-Oct-22 17:33N 51°16' E 004°13'0 0.0
2014-Oct-22 16:33N 51°16' E 004°13'0 0.0
2014-Oct-22 15:33N 51°16' E 004°13'0 0.0
2014-Oct-22 14:30N 51°16' E 004°13'0 0.0
2014-Oct-22 13:33N 51°16' E 004°13'0 0.0
2014-Oct-22 12:27N 51°16' E 004°13'0 0.0
2014-Oct-22 11:18N 51°16' E 004°13'0 0.0
2014-Oct-22 10:33N 51°16' E 004°13'0 0.0
2014-Oct-22 09:30N 51°16' E 004°13'0 0.0
2014-Oct-22 08:33N 51°16' E 004°13'0 0.0
2014-Oct-22 07:30N 51°16' E 004°13'0 0.0
2014-Oct-22 06:33N 51°16' E 004°13'0 0.0
2014-Oct-22 05:33N 51°16' E 004°13'0 0.0
2014-Oct-22 04:33N 51°16' E 004°13'0 0.0
2014-Oct-22 03:33N 51°16' E 004°13'0 0.0
2014-Oct-22 02:27N 51°16' E 004°13'0 0.0
2014-Oct-22 01:33N 51°16' E 004°13'0 0.5
2014-Oct-22 00:34N 51°17' E 004°13'2 2.3
2014-Oct-21 23:33N 51°16' E 004°17'2 2.1
2014-Oct-21 22:34N 51°17' E 004°19'10 9.6
2014-Oct-21 21:34N 51°22' E 004°06'1010.0
2014-Oct-21 20:34N 51°21' E 003°50'1110.9
2014-Oct-21 19:34N 51°25' E 003°34'1110.9
2014-Oct-21 18:33N 51°24' E 003°17'1111.5
2014-Oct-21 17:33N 51°25' E 002°58'1110.7
2014-Oct-21 16:31N 51°22' E 002°41'4 3.4
2014-Oct-21 15:29N 51°24' E 002°37'7 7.1
2014-Oct-21 14:33N 51°21' E 002°28'1413.5
2014-Oct-21 13:33N 51°15' E 002°08'1010.4
2014-Oct-21 12:34N 51°10' E 001°54'1010.4
2014-Oct-21 11:34N 51°03' E 001°41'1313.0
2014-Oct-21 10:33N 50°54' E 001°28'1212.3
2014-Oct-21 09:33N 50°42' E 001°20'  
Track history (hours):
 
Tides and Currents Weather Stations Pressure Air Temp Water Temp Dewpoint Dewpoint Depression Visibility Wind Speed Wind Dir Waves Ship Positions

Ncc Rabigh

Last reported at 2014-Oct-31 04:32 UTC. Time now 2014-Oct-31 06:15 UTC.
Position N 52°33' E 003°36'.

Length 183 m; draft 8 m.

Type: Tanker. MMSI: 403575000.

Date/timePositionNaut miles runAvg speedWind from/ knotsBaromVisibWave heightAir tempDewpointWater temp
2014-Oct-31 04:32N 52°33' E 003°36'0 0.1
2014-Oct-31 03:32N 52°32' E 003°36'0 0.1
2014-Oct-31 02:32N 52°32' E 003°36'0 0.0
2014-Oct-31 01:32N 52°32' E 003°35'0 0.1
2014-Oct-31 00:32N 52°32' E 003°36'0 0.1
2014-Oct-30 23:32N 52°33' E 003°36'0 0.0
2014-Oct-30 22:32N 52°33' E 003°36'0 0.0
2014-Oct-30 21:32N 52°33' E 003°36'0 0.0
2014-Oct-30 20:29N 52°33' E 003°36'0 0.0
2014-Oct-30 19:29N 52°33' E 003°36'0 0.0
2014-Oct-30 18:26N 52°33' E 003°36'0 0.0
2014-Oct-30 17:17N 52°33' E 003°36'0 0.0
2014-Oct-30 16:29N 52°33' E 003°36'0 0.0
2014-Oct-30 15:29N 52°33' E 003°36'0 0.1
2014-Oct-30 14:32N 52°33' E 003°35'0 0.0
2014-Oct-30 13:26N 52°32' E 003°35'0 0.0
2014-Oct-30 12:32N 52°33' E 003°35'0 0.0
2014-Oct-30 11:32N 52°33' E 003°35'0 0.0
2014-Oct-30 10:32N 52°33' E 003°35'0 0.0
2014-Oct-30 09:17N 52°33' E 003°35'0 0.0
2014-Oct-30 08:23N 52°33' E 003°35'0 0.0
2014-Oct-30 06:29N 52°33' E 003°36'0 0.0
2014-Oct-30 05:29N 52°33' E 003°35'0 0.1
2014-Oct-30 04:32N 52°33' E 003°35'0 0.1
2014-Oct-30 03:32N 52°32' E 003°35'0 0.0
2014-Oct-30 01:29N 52°32' E 003°35'0 0.0
2014-Oct-30 00:14N 52°32' E 003°35'0 0.0
2014-Oct-29 23:14N 52°32' E 003°35'0 0.0
2014-Oct-29 22:29N 52°32' E 003°35'0 0.0
2014-Oct-29 21:26N 52°32' E 003°35'0 0.0
2014-Oct-29 06:29N 52°33' E 003°36'0 0.0
2014-Oct-29 01:29N 52°33' E 003°36'0 0.0
2014-Oct-28 23:32N 52°33' E 003°36'0 0.0
2014-Oct-28 22:29N 52°33' E 003°36'0 0.0
2014-Oct-28 21:05N 52°33' E 003°36'0 0.0
2014-Oct-28 20:26N 52°33' E 003°36'0 0.0
2014-Oct-28 19:20N 52°33' E 003°36'0 0.0
2014-Oct-28 18:32N 52°33' E 003°36'0 0.0
2014-Oct-28 17:32N 52°33' E 003°36'0 0.0
2014-Oct-28 16:32N 52°33' E 003°36'0 0.0
2014-Oct-28 15:32N 52°33' E 003°36'0 0.0
2014-Oct-28 14:32N 52°33' E 003°36'0 0.0
2014-Oct-28 13:32N 52°33' E 003°36'0 0.1
2014-Oct-28 12:32N 52°33' E 003°36'0 0.0
2014-Oct-28 11:29N 52°33' E 003°35'0 0.0
2014-Oct-28 10:32N 52°33' E 003°35'8 7.9
2014-Oct-28 09:34N 52°31' E 003°23'1413.9
2014-Oct-28 08:33N 52°34' E 003°01'1413.9
2014-Oct-28 07:33N 52°37' E 002°38'1313.0
2014-Oct-28 06:33N 52°38' E 002°17'1212.6
2014-Oct-28 05:33N 52°26' E 002°18'10 9.9
2014-Oct-28 04:33N 52°25' E 002°34'8 8.3
2014-Oct-28 03:33N 52°34' E 002°34'8 7.8
2014-Oct-28 02:32N 52°41' E 002°28'9 9.0
2014-Oct-28 01:33N 52°36' E 002°16'1010.3
2014-Oct-28 00:33N 52°26' E 002°16'9 9.4
2014-Oct-27 23:33N 52°25' E 002°31'1111.1
2014-Oct-27 22:33N 52°36' E 002°33'9 8.8
2014-Oct-27 21:31N 52°40' E 002°20'9 9.6
2014-Oct-27 20:33N 52°31' E 002°17'8 7.7
2014-Oct-27 19:33N 52°26' E 002°26'1111.4
2014-Oct-27 18:33N 52°23' E 002°44'1413.6
2014-Oct-27 17:33N 52°18' E 003°05'1313.5
2014-Oct-27 16:33N 52°12' E 003°24'1313.1
2014-Oct-27 15:33N 52°06' E 003°43'1110.6
2014-Oct-27 14:33N 52°02' E 003°59'7 7.0
2014-Oct-27 13:34N 51°58' E 004°09'8 7.7
2014-Oct-27 12:33N 51°53' E 004°18'0 0.0
2014-Oct-27 11:33N 51°53' E 004°18'0 0.0
2014-Oct-27 10:30N 51°53' E 004°18'0 0.0
2014-Oct-27 09:33N 51°53' E 004°18'0 0.0
2014-Oct-27 08:30N 51°53' E 004°18'0 0.0
2014-Oct-27 07:30N 51°53' E 004°18'0 0.0
2014-Oct-27 06:30N 51°53' E 004°18'0 0.0
2014-Oct-27 05:33N 51°53' E 004°18'0 0.0
2014-Oct-27 04:33N 51°53' E 004°18'0 0.0
2014-Oct-27 03:30N 51°53' E 004°18'0 0.0
2014-Oct-27 02:33N 51°53' E 004°18'0 0.0
2014-Oct-27 01:30N 51°53' E 004°18'0 0.0
2014-Oct-27 00:33N 51°53' E 004°18'0 0.0
2014-Oct-26 23:33N 51°53' E 004°18'0 0.0
2014-Oct-26 22:33N 51°53' E 004°18'0 0.0
2014-Oct-26 21:30N 51°53' E 004°18'0 0.0
2014-Oct-26 20:33N 51°53' E 004°18'0 0.0
2014-Oct-26 19:30N 51°53' E 004°18'0 0.0
2014-Oct-26 18:33N 51°53' E 004°18'0 0.0
2014-Oct-26 17:27N 51°53' E 004°18'0 0.0
2014-Oct-26 16:33N 51°53' E 004°18'3 3.0
2014-Oct-26 15:33N 51°55' E 004°15'9 9.4
2014-Oct-26 14:34N 51°60' E 004°02'1110.8
2014-Oct-26 13:33N 51°59' E 003°44'8 7.8
2014-Oct-26 12:33N 51°56' E 003°32'2911.6
2014-Oct-26 10:03N 51°48' E 002°47'1111.2
2014-Oct-26 09:04N 51°42' E 002°33'611.4
2014-Oct-26 08:33N 51°38' E 002°26'1211.9
2014-Oct-26 07:34N 51°29' E 002°14'9 8.7
2014-Oct-26 06:34N 51°21' E 002°20'1513.0
2014-Oct-26 05:26N 51°23' E 002°43'1112.6
2014-Oct-26 04:32N 51°24' E 003°01'1313.3
2014-Oct-26 03:34N 51°25' E 003°22'1110.9
2014-Oct-26 02:34N 51°26' E 003°39'1010.2
2014-Oct-26 01:33N 51°21' E 003°53'6 6.1
2014-Oct-26 00:34N 51°24' E 004°02'7 7.5
2014-Oct-25 23:33N 51°22' E 004°14'6 6.1
2014-Oct-25 22:34N 51°16' E 004°17'0 0.4
2014-Oct-25 21:34N 51°16' E 004°17'2 2.1
2014-Oct-25 20:32N 51°17' E 004°14'0 0.0
2014-Oct-25 19:32N 51°17' E 004°14'0 0.0
2014-Oct-25 18:32N 51°17' E 004°14'0 0.0
2014-Oct-25 17:32N 51°17' E 004°14'0 0.0
2014-Oct-25 16:32N 51°17' E 004°14'0 0.0
2014-Oct-25 15:29N 51°17' E 004°14'0 0.0
2014-Oct-25 14:32N 51°17' E 004°14'0 0.0
2014-Oct-25 13:32N 51°17' E 004°14'0 0.0
2014-Oct-25 12:32N 51°17' E 004°14'0 0.0
2014-Oct-25 11:32N 51°17' E 004°14'0 0.0
2014-Oct-25 10:23N 51°17' E 004°14'0 0.0
2014-Oct-25 09:17N 51°17' E 004°14'0 0.0
2014-Oct-25 06:17N 51°17' E 004°14'0 0.0
2014-Oct-24 17:23N 51°17' E 004°14'0 0.0
2014-Oct-24 11:29N 51°17' E 004°14'0 0.0
2014-Oct-24 09:29N 51°17' E 004°14'0 0.0
2014-Oct-24 07:17N 51°17' E 004°14'0 0.0
2014-Oct-24 06:26N 51°17' E 004°14'0 0.0
2014-Oct-24 03:17N 51°17' E 004°14'0 0.0
2014-Oct-24 02:23N 51°17' E 004°14'0 0.0
2014-Oct-24 01:29N 51°17' E 004°14'0 0.0
2014-Oct-24 00:17N 51°17' E 004°14'0 0.7
2014-Oct-23 23:33N 51°17' E 004°13'1 0.7
2014-Oct-23 22:33N 51°16' E 004°13'0 0.0
2014-Oct-23 21:33N 51°16' E 004°13'0 0.0
2014-Oct-23 20:33N 51°16' E 004°13'0 0.0
2014-Oct-23 19:24N 51°16' E 004°13'0 0.0
2014-Oct-23 18:33N 51°16' E 004°13'0 0.0
2014-Oct-23 17:30N 51°16' E 004°13'0 0.0
2014-Oct-23 16:33N 51°16' E 004°13'0 0.0
2014-Oct-23 15:24N 51°16' E 004°13'0 0.0
2014-Oct-23 14:33N 51°16' E 004°13'0 0.0
2014-Oct-23 13:24N 51°16' E 004°13'0 0.0
2014-Oct-23 12:33N 51°16' E 004°13'0 0.0
2014-Oct-23 11:33N 51°16' E 004°13'0 0.0
2014-Oct-23 10:33N 51°16' E 004°13'0 0.0
2014-Oct-23 09:30N 51°16' E 004°13'0 0.0
2014-Oct-23 08:30N 51°16' E 004°13'0 0.0
2014-Oct-23 07:27N 51°16' E 004°13'0 0.0
2014-Oct-23 06:24N 51°16' E 004°13'0 0.0
2014-Oct-23 05:24N 51°16' E 004°13'0 0.0
2014-Oct-23 04:30N 51°16' E 004°13'0 0.0
2014-Oct-23 03:30N 51°16' E 004°13'0 0.0
2014-Oct-23 02:27N 51°16' E 004°13'0 0.0
2014-Oct-23 01:33N 51°16' E 004°13'0 0.0
2014-Oct-23 00:33N 51°16' E 004°13'0 0.0
2014-Oct-22 23:33N 51°16' E 004°13'0 0.0
2014-Oct-22 22:33N 51°16' E 004°13'0 0.0
2014-Oct-22 21:33N 51°16' E 004°13'0 0.0
2014-Oct-22 20:27N 51°16' E 004°13'0 0.0
2014-Oct-22 19:24N 51°16' E 004°13'0 0.0
2014-Oct-22 18:33N 51°16' E 004°13'0 0.0
2014-Oct-22 17:33N 51°16' E 004°13'0 0.0
2014-Oct-22 16:33N 51°16' E 004°13'0 0.0
2014-Oct-22 15:33N 51°16' E 004°13'0 0.0
2014-Oct-22 14:30N 51°16' E 004°13'0 0.0
2014-Oct-22 13:33N 51°16' E 004°13'0 0.0
2014-Oct-22 12:27N 51°16' E 004°13'0 0.0
2014-Oct-22 11:18N 51°16' E 004°13'0 0.0
2014-Oct-22 10:33N 51°16' E 004°13'0 0.0
2014-Oct-22 09:30N 51°16' E 004°13'0 0.0
2014-Oct-22 08:33N 51°16' E 004°13'0 0.0
2014-Oct-22 07:30N 51°16' E 004°13'0 0.0
2014-Oct-22 06:33N 51°16' E 004°13'0 0.0
2014-Oct-22 05:33N 51°16' E 004°13'0 0.0
2014-Oct-22 04:33N 51°16' E 004°13'0 0.0
2014-Oct-22 03:33N 51°16' E 004°13'0 0.0
2014-Oct-22 02:27N 51°16' E 004°13'0 0.0
2014-Oct-22 01:33N 51°16' E 004°13'0 0.5
2014-Oct-22 00:34N 51°17' E 004°13'2 2.3
2014-Oct-21 23:33N 51°16' E 004°17'2 2.1
2014-Oct-21 22:34N 51°17' E 004°19'10 9.6
2014-Oct-21 21:34N 51°22' E 004°06'1010.0
2014-Oct-21 20:34N 51°21' E 003°50'1110.9
2014-Oct-21 19:34N 51°25' E 003°34'1110.9
2014-Oct-21 18:33N 51°24' E 003°17'1111.5
2014-Oct-21 17:33N 51°25' E 002°58'1110.7
2014-Oct-21 16:31N 51°22' E 002°41'4 3.4
2014-Oct-21 15:29N 51°24' E 002°37'7 7.1
2014-Oct-21 14:33N 51°21' E 002°28'1413.5
2014-Oct-21 13:33N 51°15' E 002°08'1010.4
2014-Oct-21 12:34N 51°10' E 001°54'1010.4
2014-Oct-21 11:34N 51°03' E 001°41'1313.0
2014-Oct-21 10:33N 50°54' E 001°28'1212.3
2014-Oct-21 09:33N 50°42' E 001°20'  

Dump ship's entire track history